This is the latest recevied weather packets stored in our database for station/object NE8U. If no packets are shown the sender has not sent any weather packets the latest 10 day(s).
| Time | Temp. | Humidity | Pressure | Rain* | Wind** | Luminosity | Snow |
|---|---|---|---|---|---|---|---|
| 1777215459 | 18.89° C | 42% | 1012.5 hPa | 0 mm | - | 263 W/m² | - |
| 1777215155 | 18.89° C | 40% | 1012.5 hPa | 0 mm | - | 236 W/m² | - |
| 1777214850 | 18.89° C | 37% | 1012.6 hPa | 0 mm | - | 241 W/m² | - |
| 1777214550 | 18.89° C | 36% | 1012.6 hPa | 0 mm | - | 208 W/m² | - |
| 1777214246 | 18.89° C | 35% | 1012.5 hPa | 0 mm | - | 206 W/m² | - |
| 1777213944 | 18.89° C | 33% | 1012.4 hPa | 0 mm | - | 184 W/m² | - |
| 1777213639 | 18.33° C | 34% | 1012.2 hPa | 0 mm | - | 191 W/m² | - |
| 1777213335 | 17.22° C | 37% | 1012.2 hPa | 0 mm | - | 191 W/m² | - |
| 1777213032 | 16.67° C | 39% | 1012.2 hPa | 0 mm | - | 75 W/m² | - |
| 1777212730 | 16.67° C | 38% | 1012.2 hPa | 0 mm | - | 58 W/m² | - |
| 1777212430 | 16.67° C | 37% | 1012.2 hPa | 0 mm | - | 48 W/m² | - |
| 1777212125 | 16.67° C | 35% | 1012.2 hPa | 0 mm | - | 51 W/m² | - |
| 1777211821 | 16.67° C | 33% | 1011.6 hPa | 0 mm | - | 47 W/m² | - |
| 1777211519 | 16.67° C | 32% | 1011.5 hPa | 0 mm | - | 41 W/m² | - |
| 1777211215 | 16.67° C | 30% | 1011.7 hPa | 0 mm | - | 36 W/m² | - |
| 1777210912 | 16.67° C | 29% | 1011.6 hPa | 0 mm | - | 33 W/m² | - |
| 1777210610 | 16.67° C | 28% | 1011.4 hPa | 0 mm | - | 36 W/m² | - |
| 1777210308 | 16.67° C | 28% | 1011.4 hPa | 0 mm | - | 35 W/m² | - |
| 1777210005 | 16.67° C | 27% | 1011.5 hPa | 0 mm | - | 32 W/m² | - |
| 1777209704 | 16.67° C | 27% | 1011.3 hPa | 0 mm | - | 28 W/m² | - |
| 1777209401 | 17.22° C | 26% | 1011.1 hPa | 0 mm | - | 24 W/m² | - |
| 1777209097 | 17.22° C | 26% | 1011.1 hPa | 0 mm | - | 22 W/m² | - |
| 1777208793 | 16.67° C | 26% | 1011.1 hPa | 0 mm | - | 18 W/m² | - |
| 1777208490 | 17.22° C | 25% | 1011.1 hPa | 0 mm | - | 13 W/m² | - |
| 1777208187 | 17.22° C | 25% | 1011 hPa | 0 mm | - | 9 W/m² | - |
* Rain latest hour (hover to see other rain measurements)
** Current wind speed in m/s (hover to see current wind gust speed)